Погода в Александровке

Россия / Тамбовская область     52°17′48″N   41°21′12″E
темп.,
°C
ветер,
м/с
пор.,
м/с
влажн.,
%
обл.,
%
осадки,
мм/ч
давл.,
гПа
погр.,
м
14 апреля, ср
ср1400:00+11юв412580 0.0 1024201
03:00+9юв411675 0.0 1024175
06:00+8вюв41066100 0.0 1023153
09:00+14вюв61044100 0.0 1022409
12:00+18юв68325 0.0 1020983
15:00+20юв67266 0.0 10191726
18:00+17юв593629 0.0 1018288
21:00+13вюв495195 0.0 1018139
15 апреля, чт
чт1500:00+11вюв475965 0.0 1017112
03:00+9вюв3768100 0.0 1017104
06:00+9вюв3671100 0.0 1016114
09:00+14юв4653100 0.0 1016368
12:00+18юв4539100 0.0 1015976
15:00+20ююв3436100 0.0 10141893
18:00+17юз3552100 0.0 1015195
21:00+14юз1164100 0.1 101511
16 апреля, пт
пт1600:00+12св1176100 0.4 101611
03:00+11всв1173100 0.5 101611
06:00+11зюз3376100 0.0 101663
09:00+14зсз2268100 0.0 1017340
12:00+17в1352100 0.0 10171228
15:00+18св444987 0.0 10171363
18:00+15ю586199 0.3 1017239
21:00+12всв116969 0.4 101810
17 апреля, сб
сб1700:00+11ссв347568 0.0 101857
03:00+9всв411795 0.2 1018230
06:00+9всв6138768 0.0 1018307
09:00+14в71260100 0.0 1018759
12:00+17вюв81147100 0.0 10181809
15:00+12ююз81080100 1.5 1019531
18:00+9ююз3591100 5.4 1021293
21:00+8в2390100 13.1 1022226
18 апреля, вс
вс1800:00+8в3593100 1.1 1022260
03:00+8в2695100 1.1 1022306
06:00+8св4893100 0.6 1022421
09:00+7всв51088100 2.1 1023385
12:00+8в41070100 0.5 1024730
15:00+9юв4771100 0.6 1024532
18:00+7вюв61184100 0.3 1024635
21:00+7зсз0489100 4.6 1025143